IRIDIUM 33 DEB, 38474

Orbit data source: Space-Track

IRIDIUM 33 DEB, 38474 is space debris in LEO originally from a launch on Sun, 14 Sep 1997 UTC launched from the Tyuratam Missile And Space Complex (TTMTR). The debris from Iridium 33, an American commercial communications satellite, has been tracked extensively since its accidental collision with the defunct Russian satellite Cosmos 2251 in 2009. This event, occurring at high speed in low Earth orbit (LEO), generated thousands of pieces of space debris, significantly increasing the risk of further collisions. The Iridium 33 debris cloud has impacted space traffic management and orbital debris mitigation strategies, making it a subject of ongoing study in space situational awareness.

Loading next visibility...
Identifier
38474, 1997-051AAB
Orbit
LEO
Country
Flag of USUS
Related business
Manufacturer
Unknown
Mission
Spacecraft
Bus & Motor
Unknown
Mass
Unknown
Launch date (UTC)
1997-09-14 (29 years ago)
Launch vehicle
Unknown
Launch site
Tyuratam Missile And Space Complex (TTMTR)
Object type
Payload
Rocket body
Debris
Shape & HBR
Unknown shape, 0.050 m
Radar Cross Section
Small (<0.1 m²)

Expand to show TLE details & history
Last TLE update: 2 days ago

TLE from 2 days ago
0 IRIDIUM 33 DEB
1 38474U 97051AAB 26266.22119859  .00001143  00000-0  27810-3 0  9997
2 38474  86.3403 245.9380 0023416 209.3309 150.6584 14.51799247694440
Epoch: 2026-09-23T05:18Z
TLE epoch observation values (Epoch: 2026-09-23T05:18:31.558Z)
Latitude
0.00001°
Longitude
164.23107°
Altitude
737.354 km
Speed
7.479 km/s
True Right ascension
16h 23m 45s
True Declination
0° 00' 00"
Sunlit
Object was in daylight at epoch
Visualization orbit readout
Latitude
Unknown
Longitude
Unknown
Altitude
Unknown
Speed
Unknown
Apparent Right ascension
Unknown
Apparent Declination
Unknown
Sunlit
N/A
Visualization observer readout
Local Sidereal Time
10:33:07
Azimuth
Unknown
Elevation
Unknown
Doppler factor
Unknown
Orbital elements
Apogee altitude
733.332 km
Perigee altitude
700.106 km
Semi-major axis
7,094.856 km
Eccentricity
0.00234
Inclination
86.3403°
RAAN
245.938°
Arg. of periapsis
209.3309°
True anomaly
150.78955°
Mean anomaly
150.6584°
Eccentric anomaly
150.72401°
Mean motion
3.63185 °/min
Orbital period
99.12 mins
BSTAR
0.0002781
Loading maneuver chart data...
Computing Atmospheric mass density...

Documentation

Showing up to 5 results
|